Location: Red Deer
(52.2681°N, 113.8112°W)
Time: 19:44:55
(UTC-07:00)

BlueWalker 3 - Pass Details

Date: 08 December 2022
Orbit: 499 x 517 km, 53.2° (Epoch: 05 February)

Event Time Altitude Azimuth Distance (km) Brightness Sun altitude
Rises 18:22:11 0° 288° (WNW) 2,629 6.6 -17.1°
Reaches altitude 10° 18:24:26 10° 282° (WNW) 1,737 5.6 -17.4°
Maximum altitude 18:28:13 47° 208° (SSW) 677 2.8 -18.0°
Enters shadow 18:30:39 20° 142° (SE) 1,227 3.6 -18.3°
Exits shadow 19:02:25 -62° 118° (ESE) 11,769 8.8 -23.1°
